Flag for Netherlands Weather past 2 weeks in Hilversum, Netherlands

Now
45 °F

Sunny.


Feels Like: 39 °F
Forecast: 39 / 56 °F
Wind: 10 mph from Southwest

Location: Amsterdam Schiphol Airport

Current Time: Apr 28, 2015 at 10:05:39 PM

Latest Report: Apr 28, 2015 at 9:25 PM


Visibility: 10 mi

Pressure: 30.09 "Hg

Humidity: 57%

Dew point: 30 °F

Location of HilversumLocation

Historic Weather in Hilversum — Graph

°F

Hilversum temperature yesterday

Maximum temperature yesterday: 55 °F (at 2:25 PM)
Minimum temperature yesterday: 37 °F (at 6:25 AM)
Average temperature yesterday: 47 °F

Past Weeks' High & Low Weather Summary

 TemperatureHumidityPressure
High70 °F (Apr 15, 3:25 PM)100% (Apr 21, 4:55 AM)30.51 "Hg (Apr 21, 4:55 AM)
Low34 °F (Apr 28, 3:25 AM)34% (Apr 24, 4:55 PM)29.68 "Hg (Apr 25, 5:25 PM)
Average50 °F73%30.10 "Hg
* Reported Apr 13 8:25 PM — Apr 28 8:55 PM, Hilversum, Weather by CustomWeather, © 2015

Note: Actual official high and low records may vary slightly from our data, if they occured in-between our weather recording intervals... More about our weather records

Advertising

Hilversum weather history for previous 24 hours

 ConditionsComfort  
Time TempWeatherWind HumidityBarometerVisibility
8:55 PM
Tue, Apr 28
46 °FPassing clouds.13 mph53%30.09 "HgN/A
8:25 PM48 °FSunny.15 mph46%30.07 "Hg10 mi
7:55 PM48 °FPassing clouds.14 mph46%30.07 "HgN/A
7:25 PM50 °FPassing clouds.15 mph50%30.07 "HgN/A
6:55 PM50 °FPassing clouds.17 mph54%30.07 "HgN/A
6:25 PM50 °FPassing clouds.16 mph47%30.07 "HgN/A
5:55 PM52 °FPassing clouds.20 mph47%30.07 "HgN/A
5:25 PM50 °FPassing clouds.18 mph47%30.07 "HgN/A
4:55 PM52 °FPassing clouds.21 mph50%30.04 "HgN/A
4:25 PM52 °FScattered clouds.21 mph50%30.04 "HgN/A
3:55 PM50 °FScattered clouds.22 mph54%30.04 "HgN/A
3:25 PM48 °FScattered clouds.22 mph58%30.04 "HgN/A
2:55 PM48 °FScattered clouds.21 mph58%30.04 "HgN/A
2:25 PM52 °FScattered clouds.21 mph58%30.01 "HgN/A
1:55 PM52 °FScattered clouds.21 mph54%30.01 "HgN/A
1:25 PM52 °FScattered clouds.21 mph54%29.98 "HgN/A
12:55 PM52 °FPassing clouds.22 mph50%29.98 "HgN/A
12:25 PM50 °FScattered clouds.22 mph54%29.98 "HgN/A
11:55 AM52 °FScattered clouds.20 mph58%29.95 "HgN/A
11:25 AM50 °FScattered clouds.20 mph58%29.95 "HgN/A
10:55 AM48 °FScattered clouds.18 mph66%29.92 "HgN/A
10:25 AM46 °FScattered showers. Scattered clouds.12 mph76%29.92 "HgN/A
9:55 AM46 °FSprinkles. Passing clouds.9 mph71%29.92 "HgN/A
9:25 AM45 °FPassing clouds.6 mph76%29.92 "HgN/A
8:55 AM41 °FScattered showers. Scattered clouds.8 mph81%29.92 "HgN/A
8:25 AM41 °FScattered showers. Scattered clouds.10 mph76%29.92 "HgN/A
7:55 AM39 °FPassing clouds.8 mph81%29.89 "HgN/A
7:25 AM39 °FSprinkles. Scattered clouds.3 mph81%29.89 "HgN/A
6:55 AM39 °FPassing clouds.7 mph81%29.89 "HgN/A
6:25 AM37 °FPassing clouds.6 mph81%29.89 "HgN/A
5:55 AM36 °FClear.6 mph87%29.89 "Hg10 mi
5:25 AM34 °FClear.7 mph87%29.89 "Hg10 mi
4:55 AM34 °FClear.7 mph87%29.89 "Hg10 mi
4:25 AM34 °FClear.5 mph87%29.89 "Hg10 mi
3:55 AM34 °FClear.5 mph87%29.89 "Hg10 mi
3:25 AM34 °FClear.1 mph87%29.89 "Hg10 mi
2:55 AM36 °FClear.3 mph87%29.89 "Hg10 mi
2:25 AM36 °FClear.1 mph87%29.89 "Hg10 mi
1:55 AM36 °FClear.2 mph81%29.89 "Hg10 mi
1:25 AM37 °FClear.1 mph81%29.89 "Hg10 mi
12:55 AM37 °FClear.1 mph81%29.89 "Hg10 mi
12:25 AM37 °FClear.2 mph75%29.89 "Hg10 mi
11:55 PM
Mon, Apr 27
39 °FClear.5 mph70%29.89 "Hg10 mi
11:25 PM39 °FPassing clouds.5 mph75%29.89 "HgN/A
10:55 PM41 °FPassing clouds.5 mph70%29.89 "HgN/A
10:25 PM41 °FPassing clouds.6 mph66%29.89 "HgN/A
Weather by CustomWeather, © 2015

See weather overviewHow to use our weather pages